Location: Timmins
(48.4758°N, 81.3305°W)
Time: 18:59:42
(UTC-05:00)

ISS - Visible Passes

Search period start: 18 November 2019 00:00
Search period end: 28 November 2019 00:00
Orbit: 412 x 421 km, 51.6° (Epoch: 19 November)

Date Brightness Start Highest point End Pass type
(mag) Time Alt. Az. Time Alt. Az. Time Alt. Az.
21 Nov -0.7 19:27:37 10° SW 19:27:48 11° SW 19:27:48 11° SW visible
22 Nov -2.0 18:39:39 10° SSW 18:41:38 23° SSE 18:41:38 23° SSE visible
23 Nov -1.8 17:52:00 10° S 17:54:16 17° SE 17:55:23 15° ESE visible
23 Nov -1.1 19:27:15 10° WSW 19:28:18 19° WSW 19:28:18 19° WSW visible
24 Nov -3.4 18:38:56 10° SW 18:41:58 53° S 18:41:58 53° S visible
25 Nov -2.9 17:50:45 10° SW 17:53:51 37° SSE 17:55:33 21° E visible
25 Nov -1.1 19:27:11 10° W 19:28:28 21° W 19:28:28 21° W visible
26 Nov -3.8 18:38:41 10° WSW 18:42:00 79° NNW 18:42:00 79° NNW visible
27 Nov -3.8 17:50:14 10° WSW 17:53:35 76° SSE 17:55:30 24° ENE visible
27 Nov -1.1 19:27:13 10° W 19:28:24 19° WNW 19:28:24 19° WNW visible
